Austin, MN

8:23 AM CDT on September 30, 2016 (GMT -0500)
Austin Municipal

Weather History for KAUM - May, 2013

Change the Weather History Date:

Friday, May 3, 2013

  Actual Average Record
Temperature  
Mean Temperature 32 °F -  
Max Temperature 33 °F 62 °F 82 °F (2015)
Min Temperature 32 °F 42 °F 28 °F (2002)
Degree Days  
Heating Degree Days 32    
Moisture  
Dew Point 30 °F    
Average Humidity 87    
Maximum Humidity 93    
Minimum Humidity 81    
Precipitation  
Precipitation 0.19 in - - ()
Sea Level Pressure  
Sea Level Pressure 30.16 in    
Wind  
Wind Speed 12 mph (North)    
Max Wind Speed 20 mph    
Max Gust Speed 25 mph    
Visibility 6 miles    
Events Rain , Snow    
Averages and records for this station are not official NWS values.
T = Trace of Precipitation, MM = Missing Value Source: NWS Daily Summary

Daily Weather History Graph

Daily Weather History Graph

Search for Another Location

Airport or City:

Trip Planner

Search our weather history database for the weather conditions in past years. The results will help you decide how hot, cold, wet, or windy it might be!

Date:

Astronomy

May. 03, 2013 Rise Set
Actual Time 6:00 AM CDT 8:16 PM CDT
Civil Twilight 5:29 AM CDT 8:48 PM CDT
Nautical Twilight 4:50 AM CDT 9:28 PM CDT
Astronomical Twilight 4:06 AM CDT 10:12 PM CDT
Moon 2:37 AM CDT (5/3) 2:00 PM CDT (5/3)
Length of Visible Light 15h 19m
Length of Day
14h 15m
Last Quarter, 37% of the Moon is Illuminated
May 3
Last Quarter
May 9
New
May 17
First Quarter
May 24
Full
May 31
Last Quarter

Hourly Weather History & Observations

Time (CDT) Temp. Windchill Dew Point Humidity Pressure Visibility Wind Dir Wind Speed Gust Speed Precip Events Conditions
12:15 AM 33.8 °F 25.8 °F 30.2 °F 87% 30.36 in 10.0 mi North 10.4 mph - N/A Snow Light Snow
12:36 AM 33.8 °F 27.0 °F 30.2 °F 87% 30.35 in 10.0 mi North 8.1 mph - N/A Snow Light Snow
12:56 AM 33.8 °F 25.8 °F 30.2 °F 87% 30.34 in 7.0 mi NNE 10.4 mph 19.6 mph N/A Snow Light Snow
1:15 AM 33.8 °F 25.8 °F 30.2 °F 87% 30.34 in 2.5 mi North 10.4 mph - N/A Snow Light Snow
1:35 AM 33.8 °F 23.9 °F 30.2 °F 87% 30.33 in 4.0 mi NNE 15.0 mph 19.6 mph N/A Snow Light Snow
1:56 AM 33.8 °F 27.7 °F 30.2 °F 87% 30.33 in 2.5 mi North 6.9 mph - N/A Snow Light Snow
2:15 AM 33.8 °F 25.8 °F 30.2 °F 87% 30.32 in 2.5 mi North 10.4 mph 18.4 mph N/A Snow Light Snow
2:36 AM 33.8 °F 26.4 °F 30.2 °F 87% 30.31 in 1.8 mi North 9.2 mph 16.1 mph N/A Snow Light Snow
3:15 AM 32.0 °F 23.0 °F 30.2 °F 93% 30.28 in 1.5 mi North 11.5 mph 17.3 mph N/A Snow Light Snow
3:35 AM 32.0 °F 23.0 °F 30.2 °F 93% 30.27 in 1.8 mi North 11.5 mph - N/A Snow Light Snow
3:56 AM 32.0 °F 22.5 °F 30.2 °F 93% 30.25 in 3.0 mi North 12.7 mph 17.3 mph N/A Snow Light Snow
4:15 AM 32.0 °F 23.6 °F 30.2 °F 93% 30.25 in 4.0 mi North 10.4 mph 18.4 mph N/A Snow Light Snow
4:35 AM 32.0 °F 23.0 °F 30.2 °F 93% 30.25 in 3.0 mi North 11.5 mph 16.1 mph N/A Snow Light Snow
4:56 AM 32.0 °F 22.5 °F 28.4 °F 87% 30.24 in 4.0 mi North 12.7 mph 18.4 mph N/A Snow Light Snow
5:15 AM 32.0 °F 23.0 °F 28.4 °F 87% 30.23 in 2.0 mi North 11.5 mph 19.6 mph N/A Snow Light Snow
5:35 AM 32.0 °F 23.0 °F 28.4 °F 87% 30.23 in 1.8 mi North 11.5 mph 19.6 mph N/A Snow Light Snow
5:56 AM 32.0 °F 23.6 °F 28.4 °F 87% 30.23 in 1.5 mi North 10.4 mph 18.4 mph N/A Snow Light Snow
6:15 AM 32.0 °F 23.0 °F 28.4 °F 87% 30.22 in 2.0 mi North 11.5 mph 20.7 mph N/A Snow Light Snow
6:35 AM 32.0 °F 23.0 °F 28.4 °F 87% 30.21 in 2.0 mi North 11.5 mph 18.4 mph N/A Snow Light Snow
6:56 AM 32.0 °F 23.6 °F 28.4 °F 87% 30.21 in 4.0 mi North 10.4 mph 20.7 mph N/A Snow Light Snow
7:15 AM 32.0 °F 22.5 °F 28.4 °F 87% 30.21 in 4.0 mi North 12.7 mph 20.7 mph N/A Snow Light Snow
7:35 AM 32.0 °F 22.1 °F 28.4 °F 87% 30.22 in 5.0 mi North 13.8 mph 19.6 mph 0.01 in Snow Light Snow
7:56 AM 32.0 °F 23.0 °F 28.4 °F 87% 30.22 in 4.0 mi North 11.5 mph 17.3 mph N/A Snow Light Snow
8:15 AM 32.0 °F 23.0 °F 28.4 °F 87% 30.22 in 1.5 mi North 11.5 mph 18.4 mph N/A Snow Light Snow
8:35 AM 33.8 °F 25.8 °F 28.4 °F 81% 30.21 in 1.8 mi North 10.4 mph - N/A Snow Light Snow
8:55 AM 33.8 °F 24.8 °F 28.4 °F 81% 30.21 in 2.0 mi North 12.7 mph 17.3 mph N/A Snow Light Snow
9:15 AM 33.8 °F 25.8 °F 28.4 °F 81% 30.20 in 2.0 mi North 10.4 mph 17.3 mph N/A Snow Light Snow
9:36 AM 33.8 °F 24.3 °F 28.4 °F 81% 30.19 in 1.8 mi North 13.8 mph 18.4 mph N/A Snow Light Snow
9:55 AM 33.8 °F 24.3 °F 28.4 °F 81% 30.19 in 1.2 mi North 13.8 mph - N/A Snow Light Snow
10:16 AM 33.8 °F 24.8 °F 28.4 °F 81% 30.17 in 1.2 mi North 12.7 mph 21.9 mph N/A Snow Light Snow
10:36 AM 33.8 °F 24.8 °F 30.2 °F 87% 30.16 in 1.2 mi North 12.7 mph 19.6 mph 0.01 in Snow Light Snow
10:55 AM 33.8 °F 25.3 °F 28.4 °F 81% 30.16 in 4.0 mi North 11.5 mph 20.7 mph 0.02 in Snow Light Snow
11:16 AM 33.8 °F 24.3 °F 28.4 °F 81% 30.16 in 4.0 mi North 13.8 mph 21.9 mph N/A Snow Light Snow
11:36 AM 33.8 °F 24.8 °F 28.4 °F 81% 30.16 in 5.0 mi North 12.7 mph 16.1 mph N/A   Overcast
11:55 AM 33.8 °F 24.3 °F 28.4 °F 81% 30.15 in 5.0 mi North 13.8 mph 20.7 mph N/A Rain Light Rain
12:15 PM 33.8 °F 24.8 °F 30.2 °F 87% 30.14 in 7.0 mi North 12.7 mph 18.4 mph 0.01 in Rain Light Rain
12:36 PM 33.8 °F 23.9 °F 30.2 °F 87% 30.12 in 7.0 mi NNE 15.0 mph 25.3 mph 0.02 in Rain Light Rain
12:55 PM 33.8 °F 23.9 °F 30.2 °F 87% 30.11 in 7.0 mi North 15.0 mph 25.3 mph 0.02 in Rain Light Rain
1:15 PM 33.8 °F 23.9 °F 30.2 °F 87% 30.11 in 7.0 mi NNE 15.0 mph 24.2 mph 0.01 in Snow Light Snow
1:36 PM 33.8 °F 23.5 °F 30.2 °F 87% 30.10 in 7.0 mi NNE 16.1 mph 24.2 mph 0.02 in Rain Light Rain
1:55 PM 33.8 °F 24.8 °F 30.2 °F 87% 30.11 in 4.0 mi North 12.7 mph 17.3 mph 0.03 in Rain Rain
2:16 PM 33.8 °F 22.5 °F 30.2 °F 87% 30.09 in 5.0 mi NNE 19.6 mph 23.0 mph 0.01 in Rain Light Rain
2:36 PM 33.8 °F 24.3 °F 30.2 °F 87% 30.10 in 10.0 mi NNE 13.8 mph 24.2 mph 0.01 in Rain Light Rain
2:55 PM 33.8 °F 24.8 °F 30.2 °F 87% 30.09 in 3.0 mi North 12.7 mph 21.9 mph 0.02 in Rain Rain
3:16 PM 33.8 °F 24.8 °F 30.2 °F 87% 30.09 in 4.0 mi North 12.7 mph 21.9 mph 0.02 in Rain Light Rain
3:36 PM 33.8 °F 23.5 °F 30.2 °F 87% 30.09 in 4.0 mi NNE 16.1 mph - 0.04 in Snow Light Snow
3:55 PM 33.8 °F 24.3 °F 30.2 °F 87% 30.08 in 7.0 mi NNE 13.8 mph 21.9 mph 0.04 in Rain Light Rain
4:16 PM 33.8 °F 27.7 °F 30.2 °F 87% 30.10 in 10.0 mi North 6.9 mph - N/A Rain Light Rain
4:35 PM 33.8 °F 24.8 °F 30.2 °F 87% 30.08 in 10.0 mi North 12.7 mph 19.6 mph N/A Rain Light Rain
4:55 PM 33.8 °F 24.8 °F 30.2 °F 87% 30.09 in 7.0 mi North 12.7 mph 18.4 mph 0.01 in Rain Light Rain
5:16 PM 33.8 °F 24.3 °F 30.2 °F 87% 30.08 in 5.0 mi North 13.8 mph 21.9 mph 0.01 in Rain Rain
5:35 PM 33.8 °F 24.8 °F 30.2 °F 87% 30.07 in 3.0 mi North 12.7 mph 18.4 mph 0.04 in   Overcast
5:56 PM 33.8 °F 25.3 °F 30.2 °F 87% 30.08 in 4.0 mi North 11.5 mph 19.6 mph N/A Rain Rain
6:16 PM 33.8 °F 25.8 °F 30.2 °F 87% 30.09 in 10.0 mi North 10.4 mph - N/A Rain Light Rain
6:35 PM 33.8 °F 25.3 °F 30.2 °F 87% 30.07 in 10.0 mi North 11.5 mph 17.3 mph N/A   Overcast
6:56 PM 33.8 °F 25.8 °F 30.2 °F 87% 30.06 in 10.0 mi North 10.4 mph 18.4 mph N/A   Overcast
7:15 PM 33.8 °F 24.3 °F 30.2 °F 87% 30.06 in 10.0 mi North 13.8 mph 19.6 mph N/A   Overcast
7:36 PM 33.8 °F 24.3 °F 30.2 °F 87% 30.07 in 7.0 mi North 13.8 mph 20.7 mph N/A   Overcast
7:55 PM 33.8 °F 25.3 °F 30.2 °F 87% 30.08 in 10.0 mi NNE 11.5 mph 18.4 mph N/A   Overcast
8:16 PM 33.8 °F 25.3 °F 30.2 °F 87% 30.08 in 10.0 mi NNE 11.5 mph 18.4 mph N/A   Overcast
8:36 PM 33.8 °F 25.8 °F 30.2 °F 87% 30.08 in 10.0 mi NNE 10.4 mph 17.3 mph N/A   Overcast
8:55 PM 33.8 °F 25.3 °F 30.2 °F 87% 30.07 in 10.0 mi North 11.5 mph - N/A   Overcast
9:16 PM 33.8 °F 24.8 °F 30.2 °F 87% 30.07 in 10.0 mi NNE 12.7 mph 17.3 mph N/A   Overcast
9:36 PM 33.8 °F 24.8 °F 30.2 °F 87% 30.08 in 10.0 mi NNE 12.7 mph 17.3 mph N/A   Overcast
9:55 PM 33.8 °F 24.8 °F 30.2 °F 87% 30.07 in 10.0 mi North 12.7 mph 18.4 mph N/A   Overcast
10:16 PM 33.8 °F 24.8 °F 30.2 °F 87% 30.06 in 10.0 mi North 12.7 mph 17.3 mph N/A   Overcast
10:36 PM 33.8 °F 24.8 °F 30.2 °F 87% 30.06 in 10.0 mi North 12.7 mph 18.4 mph N/A   Overcast
10:55 PM 33.8 °F 25.8 °F 30.2 °F 87% 30.07 in 10.0 mi NNE 10.4 mph - N/A   Overcast
11:16 PM 33.8 °F 25.3 °F 30.2 °F 87% 30.07 in 10.0 mi North 11.5 mph 18.4 mph N/A   Overcast
11:36 PM 33.8 °F 24.8 °F 30.2 °F 87% 30.06 in 10.0 mi North 12.7 mph - N/A   Light Drizzle
11:55 PM 33.8 °F 24.8 °F 30.2 °F 87% 30.06 in 7.0 mi North 12.7 mph 17.3 mph N/A   Overcast